Weather History for Hayward, WI

Change the Weather History Date:

Tuesday, November 20, 2012

  Actual Average Record
Temperature  
Mean Temperature 34 °F -  
Max Temperature 43 °F 29 °F 51 °F (2003)
Min Temperature 23 °F 21 °F 12 °F (1996)
Degree Days  
Heating Degree Days 32    
Moisture  
Dew Point 27 °F    
Average Humidity 89    
Maximum Humidity 96    
Minimum Humidity 73    
Precipitation  
Precipitation 0.00 in - - ()
Sea Level Pressure  
Sea Level Pressure 30.13 in    
Wind  
Wind Speed 0 mph (North)    
Max Wind Speed 0 mph    
Max Gust Speed -    
Visibility 3 miles    
Events Fog    
Averages and records for this station are not official NWS values.
T = Trace of Precipitation, MM = Missing Value Source: NWS Daily Summary

Daily Weather History Graph

Daily Weather History Graph

Search for Another Location

Airport:

Trip Planner

Search our weather history database for the weather conditions in past years. The results will help you decide how hot, cold, wet, or windy it might be!

Date:

Astronomy

Nov. 20, 2012 Rise Set
Actual Time 7:13 AM CST 4:28 PM CST
Civil Twilight 6:40 AM CST 5:01 PM CST
Nautical Twilight 6:04 AM CST 5:38 PM CST
Astronomical Twilight 5:28 AM CST 6:13 PM CST
Moon 12:36 PM CST (11/20) No Moon Set
Length of Visible Light 10h 20m
Length of Day
9h 14m
First Quarter, 51% of the Moon is Illuminated
Nov 20
First Quarter
Nov 28
Full
Dec 6
Last Quarter
Dec 13
New
Dec 19
First Quarter

Hourly Weather History & Observations

Time (CST) Temp. Dew Point Humidity Pressure Visibility Wind Dir Wind Speed Gust Speed Precip Events Conditions
12:53 AM 30.0 °F 27.0 °F 88% 30.09 in 7.0 mi Calm Calm - N/A   Partly Cloudy
2:53 AM 28.0 °F 25.0 °F 88% 30.11 in 5.0 mi Calm Calm - N/A   Clear
3:53 AM 25.0 °F 21.9 °F 88% 30.13 in 5.0 mi Calm Calm - N/A   Clear
3:56 AM 24.8 °F 21.2 °F 86% 30.10 in 1.8 mi Calm Calm - N/A   Clear
4:14 AM 26.6 °F 23.0 °F 86% 30.10 in 1.2 mi Calm Calm - N/A   Partly Cloudy
4:21 AM 26.6 °F 24.8 °F 93% 30.10 in 3.0 mi Calm Calm - N/A   Partly Cloudy
4:36 AM 26.6 °F 21.2 °F 80% 30.10 in 4.0 mi Calm Calm - N/A   Mostly Cloudy
4:53 AM 24.1 °F 21.0 °F 88% 30.14 in 4.0 mi Calm Calm - N/A   Overcast
4:56 AM 24.8 °F 21.2 °F 86% 30.09 in 1.5 mi Calm Calm - N/A   Overcast
5:04 AM 26.6 °F 23.0 °F 86% 30.10 in 0.2 mi Calm Calm - N/A Fog Light Freezing Fog
6:53 AM 27.0 °F 26.1 °F 96% 30.13 in 0.2 mi Calm Calm - N/A Fog Light Freezing Fog
7:53 AM 28.0 °F 27.0 °F 96% 30.17 in 0.2 mi Calm Calm - N/A Fog Light Freezing Fog
8:53 AM 30.9 °F 28.9 °F 92% 30.19 in 0.2 mi Calm Calm - N/A Fog Light Freezing Fog
9:53 AM 32.0 °F 30.9 °F 96% 30.19 in 0.2 mi Calm Calm - N/A Fog Fog
10:53 AM 34.0 °F 32.0 °F 92% 30.19 in 0.2 mi Calm Calm - N/A Fog Fog
11:53 AM 34.0 °F 33.1 °F 96% 30.18 in 0.2 mi Calm Calm - N/A Fog Fog
12:41 PM 35.6 °F 33.8 °F 93% 30.12 in 1.2 mi Calm Calm - N/A   Overcast
12:53 PM 35.1 °F 34.0 °F 96% 30.17 in 2.0 mi Calm Calm - N/A   Overcast
1:04 PM 35.6 °F 33.8 °F 93% 30.13 in 3.0 mi Calm Calm - N/A   Overcast
1:26 PM 37.4 °F 33.8 °F 87% 30.12 in 6.0 mi Calm Calm - N/A   Scattered Clouds
1:53 PM 41.0 °F 35.1 °F 79% 30.17 in 6.0 mi Calm Calm - N/A   Haze
2:53 PM 43.0 °F 35.1 °F 74% 30.15 in 9.0 mi Calm Calm - N/A   Clear
3:53 PM 42.1 °F 34.0 °F 73% 30.16 in 10.0 mi Calm Calm - N/A   Clear
4:53 PM 34.0 °F 30.0 °F 85% 30.17 in 7.0 mi Calm Calm - N/A   Clear
5:02 PM 30.2 °F 28.4 °F 93% 30.11 in 1.8 mi Calm Calm - N/A   Clear
5:12 PM 30.2 °F 26.6 °F 86% 30.11 in 3.0 mi Calm Calm - N/A   Clear
5:23 PM 30.2 °F 28.4 °F 93% 30.11 in 2.0 mi Calm Calm - N/A   Clear
5:34 PM 30.2 °F 28.4 °F 93% 30.11 in 3.0 mi Calm Calm - N/A   Clear
5:53 PM 28.0 °F 25.0 °F 88% 30.17 in 3.0 mi Calm Calm - N/A   Clear
6:24 PM 26.6 °F 24.8 °F 93% 30.11 in 1.2 mi Calm Calm - N/A   Clear
6:35 PM 26.6 °F 23.0 °F 86% 30.10 in 3.0 mi Calm Calm - N/A   Clear
6:46 PM 26.6 °F 23.0 °F 86% 30.10 in 2.5 mi Calm Calm - N/A   Clear
6:53 PM 27.0 °F 23.0 °F 85% 30.16 in 1.8 mi Calm Calm - N/A   Clear
7:06 PM 26.6 °F 24.8 °F 93% 30.09 in 2.5 mi Calm Calm - N/A   Clear
7:13 PM 26.6 °F 24.8 °F 93% 30.09 in 3.0 mi Calm Calm - N/A   Clear
7:53 PM 25.0 °F 23.0 °F 92% 30.13 in 5.0 mi Calm Calm - N/A   Clear
8:53 PM 24.1 °F 21.0 °F 88% 30.14 in 6.0 mi Calm Calm - N/A   Clear
9:53 PM 24.1 °F 21.0 °F 88% 30.14 in 5.0 mi Calm Calm - N/A   Clear
10:53 PM 24.1 °F 21.0 °F 88% 30.13 in 5.0 mi Calm Calm - N/A   Clear
11:53 PM 23.0 °F 19.9 °F 88% 30.12 in 6.0 mi Calm Calm - N/A   Clear